TPC74 LTAG-LJLJ

Flight info

Callsign TPC74
Flight time N/A
Altitude 43000
Route ADA UW75 BAG UA17 YAVRU UL615 ERSEN UA4 ERKAL UL615 DIGBO L615 VADEN DCT UTEKA DCT TUVAR DCT MAGAM MAGAM2L
Aircraft PC24/M-SBDGIRWY/LB2

Departure

Time N/A
Airport İncirlik Air Base (LTAG)

Arrival

Time 2026-04-26 01:40
Airport Ljubljana Jože Pučnik Airport (LJLJ)
Time Latitude Longitude Altitude Speed Heading
2026-04-25 23:53 41.68553 28.01099 36049 ft 402 kts 304°
2026-04-25 23:54 41.71585 27.94833 36046 ft 400 kts 304°
2026-04-25 23:54 41.74597 27.88595 36043 ft 398 kts 304°
2026-04-25 23:55 41.77606 27.82356 36046 ft 400 kts 304°
2026-04-25 23:55 41.80606 27.76114 36052 ft 402 kts 304°
2026-04-25 23:56 41.83639 27.69796 36046 ft 401 kts 304°
2026-04-25 23:56 41.86645 27.63518 36042 ft 399 kts 304°
2026-04-25 23:57 41.89636 27.57262 36044 ft 399 kts 304°
2026-04-25 23:57 41.92643 27.50955 36046 ft 402 kts 304°
2026-04-25 23:58 41.95657 27.44625 36042 ft 401 kts 304°
2026-04-25 23:58 41.98629 27.38366 36045 ft 399 kts 304°
2026-04-25 23:59 42.01601 27.32099 36042 ft 396 kts 304°
2026-04-25 23:59 42.04569 27.25823 36040 ft 399 kts 304°
2026-04-26 00:00 42.07489 27.19459 36034 ft 400 kts 302°
2026-04-26 00:00 42.10272 27.12997 36035 ft 397 kts 302°
2026-04-26 00:01 42.13041 27.06576 36029 ft 396 kts 302°
2026-04-26 00:01 42.15810 27.00128 36031 ft 399 kts 302°
2026-04-26 00:02 42.18576 26.93680 36029 ft 401 kts 302°
2026-04-26 00:02 42.21346 26.87199 36025 ft 397 kts 302°
2026-04-26 00:03 42.24098 26.80756 36026 ft 396 kts 302°
2026-04-26 00:03 42.26854 26.74283 36026 ft 399 kts 302°
2026-04-26 00:04 42.29620 26.67775 36038 ft 400 kts 302°
2026-04-26 00:04 42.32377 26.61270 36034 ft 397 kts 302°
2026-04-26 00:05 42.35114 26.54804 36033 ft 396 kts 302°
2026-04-26 00:05 42.37850 26.48325 36040 ft 398 kts 302°
2026-04-26 00:06 42.40577 26.41849 36044 ft 399 kts 302°
2026-04-26 00:06 42.43326 26.35308 36047 ft 398 kts 302°
2026-04-26 00:07 42.46047 26.28817 36041 ft 394 kts 302°
2026-04-26 00:07 42.48750 26.22361 36014 ft 395 kts 302°
2026-04-26 00:08 42.51467 26.15851 36028 ft 398 kts 302°
2026-04-26 00:08 42.54167 26.09309 36028 ft 396 kts 301°
2026-04-26 00:09 42.56891 26.02891 36024 ft 395 kts 302°
2026-04-26 00:09 42.59561 25.96353 36032 ft 397 kts 302°
2026-04-26 00:10 42.62275 25.89828 36039 ft 397 kts 302°
2026-04-26 00:10 42.64975 25.83278 36032 ft 397 kts 302°
2026-04-26 00:11 42.67677 25.76722 36035 ft 398 kts 302°
2026-04-26 00:11 42.70380 25.70146 36039 ft 399 kts 302°
2026-04-26 00:12 42.73083 25.63554 36039 ft 399 kts 302°
2026-04-26 00:12 42.75769 25.56990 36035 ft 399 kts 302°
2026-04-26 00:13 42.78459 25.50398 36037 ft 396 kts 302°
2026-04-26 00:13 42.81122 25.43863 36038 ft 395 kts 302°
2026-04-26 00:14 42.83799 25.37277 36043 ft 398 kts 302°
2026-04-26 00:14 42.86476 25.30671 36044 ft 397 kts 302°
2026-04-26 00:15 42.89131 25.24110 36036 ft 394 kts 302°
2026-04-26 00:15 42.91776 25.17557 36044 ft 396 kts 302°
2026-04-26 00:16 42.94401 25.11037 36035 ft 392 kts 302°
2026-04-26 00:16 42.97023 25.04513 36040 ft 393 kts 302°
2026-04-26 00:17 42.99656 24.97944 36024 ft 395 kts 302°
2026-04-26 00:17 43.02294 24.91348 36022 ft 396 kts 302°
2026-04-26 00:18 43.04929 24.84748 36022 ft 395 kts 302°
2026-04-26 00:18 43.07555 24.78151 36021 ft 395 kts 302°
2026-04-26 00:19 43.09735 24.72665 36013 ft 395 kts 302°
2026-04-26 00:19 43.12352 24.66063 36012 ft 395 kts 302°
2026-04-26 00:20 43.15390 24.58381 36007 ft 394 kts 302°
2026-04-26 00:20 43.17557 24.52889 36006 ft 394 kts 302°
2026-04-26 00:21 43.20162 24.46273 36010 ft 394 kts 302°
2026-04-26 00:21 43.22765 24.39646 36015 ft 394 kts 302°
2026-04-26 00:22 43.25362 24.33020 36011 ft 394 kts 302°
2026-04-26 00:22 43.27953 24.26395 36008 ft 394 kts 302°
2026-04-26 00:23 43.30541 24.19759 36008 ft 394 kts 302°
2026-04-26 00:23 43.33124 24.13122 36009 ft 394 kts 302°
2026-04-26 00:24 43.35703 24.06480 36012 ft 394 kts 302°
2026-04-26 00:24 43.38261 23.99875 36016 ft 394 kts 302°
2026-04-26 00:25 43.40827 23.93234 36025 ft 392 kts 302°
2026-04-26 00:25 43.43385 23.86601 36025 ft 394 kts 302°
2026-04-26 00:26 43.45955 23.79920 36020 ft 396 kts 302°
2026-04-26 00:26 43.48533 23.73201 36023 ft 396 kts 302°
2026-04-26 00:27 43.51096 23.66507 36022 ft 394 kts 302°
2026-04-26 00:27 43.53639 23.59848 36023 ft 392 kts 302°
2026-04-26 00:28 43.56163 23.53224 36018 ft 394 kts 302°
2026-04-26 00:28 43.58716 23.46508 36031 ft 396 kts 302°
2026-04-26 00:29 43.61263 23.39789 36027 ft 393 kts 302°
2026-04-26 00:29 43.63789 23.33113 36024 ft 392 kts 302°
2026-04-26 00:30 43.66309 23.26439 36025 ft 393 kts 302°
2026-04-26 00:30 43.68841 23.19712 36033 ft 396 kts 302°
2026-04-26 00:31 43.71366 23.12989 36037 ft 397 kts 302°
2026-04-26 00:31 43.73896 23.06234 36040 ft 394 kts 302°
2026-04-26 00:32 43.76407 22.99518 36039 ft 393 kts 301°
2026-04-26 00:32 43.80166 22.89436 36039 ft 395 kts 301°
2026-04-26 00:33 43.82687 22.82647 36052 ft 397 kts 301°
2026-04-26 00:33 43.85206 22.75849 36052 ft 395 kts 301°
2026-04-26 00:34 43.87687 22.69140 36054 ft 391 kts 301°
2026-04-26 00:34 43.90175 22.62399 36051 ft 394 kts 301°
2026-04-26 00:35 43.92670 22.55616 36056 ft 396 kts 301°
2026-04-26 00:35 43.95166 22.48813 36057 ft 394 kts 301°
2026-04-26 00:36 43.97639 22.42059 36052 ft 392 kts 301°
2026-04-26 00:36 44.00113 22.35289 36062 ft 394 kts 301°
2026-04-26 00:37 44.02593 22.28481 36062 ft 395 kts 301°
2026-04-26 00:37 44.05077 22.21649 36070 ft 396 kts 301°
2026-04-26 00:38 44.07554 22.14814 36067 ft 395 kts 301°
2026-04-26 00:38 44.10017 22.08004 36067 ft 393 kts 301°
2026-04-26 00:39 44.12451 22.01258 36060 ft 392 kts 301°
2026-04-26 00:39 44.14908 21.94434 36073 ft 397 kts 301°
2026-04-26 00:40 44.17376 21.87552 36083 ft 397 kts 301°
2026-04-26 00:40 44.19839 21.80680 36083 ft 396 kts 300°
2026-04-26 00:41 44.22292 21.73808 36083 ft 395 kts 300°
2026-04-26 00:41 44.24721 21.66992 36072 ft 395 kts 300°
2026-04-26 00:42 44.27165 21.60117 36075 ft 395 kts 300°
2026-04-26 00:42 44.29602 21.53243 36075 ft 395 kts 300°
2026-04-26 00:43 44.32032 21.46370 36084 ft 394 kts 300°
2026-04-26 00:43 44.34453 21.39506 36069 ft 393 kts 300°
2026-04-26 00:44 44.36866 21.32649 36077 ft 393 kts 300°
2026-04-26 00:44 44.39272 21.25792 36076 ft 393 kts 300°
2026-04-26 00:45 44.41672 21.18934 36075 ft 392 kts 300°
2026-04-26 00:45 44.44050 21.12125 36072 ft 392 kts 300°
2026-04-26 00:46 44.46439 21.05268 36075 ft 393 kts 300°
2026-04-26 00:46 44.48847 20.98337 36078 ft 397 kts 299°
2026-04-26 00:47 44.51247 20.91410 36080 ft 393 kts 299°
2026-04-26 00:47 44.53628 20.84522 36074 ft 393 kts 299°
2026-04-26 00:48 44.56020 20.77583 36077 ft 396 kts 299°
2026-04-26 00:48 44.58404 20.70645 36070 ft 393 kts 299°
2026-04-26 00:49 44.60771 20.63748 36064 ft 392 kts 299°
2026-04-26 00:49 44.63120 20.56881 36068 ft 393 kts 299°
2026-04-26 00:50 44.65486 20.49948 36073 ft 394 kts 299°
2026-04-26 00:50 44.67853 20.42993 36072 ft 394 kts 298°
2026-04-26 00:51 44.70216 20.36029 36078 ft 395 kts 298°
2026-04-26 00:51 44.72577 20.29058 36075 ft 395 kts 298°
2026-04-26 00:52 44.74933 20.22081 36079 ft 395 kts 298°
2026-04-26 00:52 44.77256 20.15180 36075 ft 388 kts 298°
2026-04-26 00:53 44.79575 20.08282 36070 ft 391 kts 298°
2026-04-26 00:53 44.81884 20.01386 36075 ft 391 kts 298°
2026-04-26 00:54 44.84191 19.94484 36069 ft 388 kts 298°
2026-04-26 00:54 44.86483 19.87611 36064 ft 387 kts 298°
2026-04-26 00:55 44.88779 19.80703 36066 ft 390 kts 298°
2026-04-26 00:55 44.91081 19.73761 36068 ft 392 kts 298°
2026-04-26 00:56 44.93381 19.66805 36063 ft 390 kts 298°
2026-04-26 00:56 44.95663 19.59887 36057 ft 388 kts 298°
2026-04-26 00:57 44.97917 19.53036 36060 ft 388 kts 298°
2026-04-26 00:57 45.00198 19.46085 36053 ft 391 kts 297°
2026-04-26 00:58 45.02486 19.39093 36063 ft 393 kts 297°
2026-04-26 00:58 45.04768 19.32098 36064 ft 391 kts 297°
2026-04-26 00:59 45.07035 19.25138 36059 ft 388 kts 297°
2026-04-26 00:59 45.09291 19.18189 36059 ft 390 kts 297°
2026-04-26 01:00 45.11540 19.11244 36062 ft 392 kts 297°
2026-04-26 01:00 45.13654 19.04107 36061 ft 394 kts 293°
2026-04-26 01:01 45.15590 18.96865 36067 ft 392 kts 294°
2026-04-26 01:01 45.17523 18.89666 36059 ft 390 kts 294°
2026-04-26 01:02 45.19441 18.82475 36060 ft 391 kts 294°
2026-04-26 01:02 45.21367 18.75242 36065 ft 393 kts 293°
2026-04-26 01:03 45.23291 18.67986 36058 ft 392 kts 293°
2026-04-26 01:03 45.25199 18.60775 36055 ft 390 kts 293°
2026-04-26 01:04 45.27098 18.53578 36053 ft 389 kts 293°
2026-04-26 01:04 45.28986 18.46398 36059 ft 392 kts 293°
2026-04-26 01:05 45.30886 18.39146 36053 ft 391 kts 292°
2026-04-26 01:05 45.32776 18.31913 36051 ft 390 kts 292°
2026-04-26 01:06 45.34656 18.24696 36056 ft 389 kts 292°
2026-04-26 01:06 45.36526 18.17495 36055 ft 388 kts 292°
2026-04-26 01:07 45.38390 18.10299 36049 ft 389 kts 292°
2026-04-26 01:07 45.40261 18.03047 36059 ft 392 kts 292°
2026-04-26 01:08 45.42135 17.95765 36057 ft 390 kts 292°
2026-04-26 01:08 45.43992 17.88526 36053 ft 388 kts 292°
2026-04-26 01:09 45.45826 17.81356 36059 ft 389 kts 292°
2026-04-26 01:09 45.47681 17.74081 36054 ft 392 kts 292°
2026-04-26 01:10 45.49538 17.66768 36056 ft 392 kts 292°
2026-04-26 01:10 45.51380 17.59499 36059 ft 388 kts 292°
2026-04-26 01:11 45.53209 17.52256 36055 ft 389 kts 291°
2026-04-26 01:11 45.55044 17.44966 36058 ft 391 kts 291°
2026-04-26 01:12 45.56883 17.37637 36059 ft 391 kts 291°
2026-04-26 01:12 45.58695 17.30390 36058 ft 389 kts 291°
2026-04-26 01:13 45.60506 17.23126 36062 ft 388 kts 291°
2026-04-26 01:13 45.62316 17.15842 36063 ft 390 kts 291°
2026-04-26 01:14 45.64132 17.08513 36074 ft 392 kts 291°
2026-04-26 01:14 45.65948 17.01157 36064 ft 391 kts 291°
2026-04-26 01:15 45.67736 16.93891 36067 ft 389 kts 291°
2026-04-26 01:15 45.69523 16.86609 36069 ft 388 kts 291°
2026-04-26 01:16 45.71311 16.79297 36072 ft 391 kts 291°
2026-04-26 01:16 45.73107 16.71931 36076 ft 392 kts 291°
2026-04-26 01:17 45.74890 16.64586 36081 ft 389 kts 290°
2026-04-26 01:17 45.76658 16.57284 36084 ft 387 kts 290°
2026-04-26 01:18 45.78417 16.50001 36086 ft 387 kts 290°
2026-04-26 01:18 45.80168 16.42725 36093 ft 390 kts 290°
2026-04-26 01:19 45.81935 16.35355 36098 ft 391 kts 290°
2026-04-26 01:19 45.83692 16.28001 36094 ft 389 kts 290°
2026-04-26 01:20 45.85434 16.20687 36093 ft 387 kts 290°
2026-04-26 01:20 45.86882 16.14594 36094 ft 389 kts 290°
2026-04-26 01:21 45.88623 16.07242 36075 ft 391 kts 290°
2026-04-26 01:21 45.90379 15.99880 35808 ft 388 kts 290°
2026-04-26 01:22 45.91196 15.96448 35576 ft 388 kts 290°
2026-04-26 01:22 45.92072 15.92774 35291 ft 388 kts 290°
2026-04-26 01:22 45.92928 15.89189 34923 ft 371 kts 290°
2026-04-26 01:22 45.93758 15.85735 34439 ft 361 kts 290°
2026-04-26 01:23 45.94566 15.82363 33953 ft 351 kts 288°
2026-04-26 01:23 45.95236 15.79121 33777 ft 332 kts 287°
2026-04-26 01:23 45.95932 15.75934 32835 ft 337 kts 289°
2026-04-26 01:23 45.96705 15.72738 31990 ft 339 kts 290°
2026-04-26 01:24 45.97415 15.69545 31118 ft 341 kts 284°
2026-04-26 01:24 45.97901 15.66185 30220 ft 345 kts 283°
2026-04-26 01:24 45.98403 15.62806 29176 ft 347 kts 283°
2026-04-26 01:24 45.98927 15.59407 28102 ft 350 kts 283°
2026-04-26 01:25 45.99450 15.55973 27093 ft 352 kts 283°
2026-04-26 01:25 45.99960 15.52555 26293 ft 348 kts 283°
2026-04-26 01:25 46.00464 15.49173 25489 ft 344 kts 283°
2026-04-26 01:25 46.00967 15.45824 24720 ft 341 kts 283°
2026-04-26 01:26 46.01464 15.42500 23976 ft 338 kts 283°
2026-04-26 01:26 46.01956 15.39206 23170 ft 336 kts 283°
2026-04-26 01:26 46.02440 15.35945 22382 ft 331 kts 283°
2026-04-26 01:26 46.02917 15.32717 21634 ft 327 kts 283°
2026-04-26 01:27 46.03389 15.29540 20910 ft 323 kts 283°
2026-04-26 01:27 46.03853 15.26406 20205 ft 319 kts 283°
2026-04-26 01:27 46.04305 15.23335 19536 ft 315 kts 283°
2026-04-26 01:27 46.04757 15.20269 18859 ft 312 kts 283°
2026-04-26 01:28 46.05209 15.17191 18167 ft 308 kts 283°
2026-04-26 01:28 46.05649 15.14189 17440 ft 305 kts 283°
2026-04-26 01:28 46.06079 15.11254 16756 ft 302 kts 283°
2026-04-26 01:28 46.06509 15.08313 16089 ft 299 kts 283°
2026-04-26 01:29 46.06933 15.05399 15439 ft 296 kts 283°
2026-04-26 01:29 46.07353 15.02508 14794 ft 294 kts 283°
2026-04-26 01:29 46.07770 14.99644 14187 ft 291 kts 283°
2026-04-26 01:29 46.08183 14.96800 13550 ft 288 kts 284°
2026-04-26 01:30 46.08588 14.93991 12913 ft 285 kts 284°
2026-04-26 01:30 46.08989 14.91221 12416 ft 278 kts 284°
2026-04-26 01:30 46.09364 14.88601 12413 ft 256 kts 284°
2026-04-26 01:30 46.09714 14.86167 12391 ft 239 kts 284°
2026-04-26 01:31 46.10043 14.83888 12370 ft 226 kts 284°
2026-04-26 01:31 46.10354 14.81728 12342 ft 215 kts 284°
2026-04-26 01:31 46.10664 14.79575 11843 ft 226 kts 284°
2026-04-26 01:31 46.10989 14.77314 11338 ft 234 kts 284°
2026-04-26 01:32 46.11317 14.75015 10853 ft 240 kts 283°
2026-04-26 01:32 46.11657 14.72630 10366 ft 245 kts 283°
2026-04-26 01:32 46.12001 14.70204 9873 ft 249 kts 283°
2026-04-26 01:32 46.12353 14.67746 9327 ft 251 kts 283°
2026-04-26 01:33 46.12694 14.65268 8788 ft 253 kts 281°
2026-04-26 01:33 46.12660 14.62751 8232 ft 255 kts 256°
2026-04-26 01:33 46.11667 14.60642 7704 ft 261 kts 219°
2026-04-26 01:33 46.09976 14.59734 7185 ft 266 kts 185°
2026-04-26 01:34 46.08198 14.60372 6690 ft 268 kts 150°
2026-04-26 01:34 46.06971 14.62346 6179 ft 269 kts 116°
2026-04-26 01:34 46.06479 14.64924 5666 ft 265 kts 96°
2026-04-26 01:34 46.06813 14.67490 5144 ft 265 kts 62°
2026-04-26 01:35 46.08092 14.69328 4549 ft 263 kts 29°
2026-04-26 01:35 46.09867 14.69784 4103 ft 260 kts 351°
2026-04-26 01:35 46.11405 14.68650 4002 ft 244 kts 313°
2026-04-26 01:35 46.12067 14.66543 3999 ft 226 kts 275°
2026-04-26 01:36 46.12535 14.64482 3751 ft 215 kts 304°
2026-04-26 01:36 46.13445 14.62861 3634 ft 201 kts 311°
2026-04-26 01:36 46.14291 14.61334 3599 ft 186 kts 304°
2026-04-26 01:37 46.15754 14.58335 3100 ft 176 kts 308°
2026-04-26 01:37 46.16469 14.56990 2869 ft 160 kts 307°
2026-04-26 01:37 46.17086 14.55806 2673 ft 135 kts 307°
2026-04-26 01:37 46.17634 14.54757 2495 ft 128 kts 307°
2026-04-26 01:38 46.18167 14.53754 2329 ft 124 kts 307°
2026-04-26 01:38 46.18681 14.52770 2160 ft 122 kts 307°
2026-04-26 01:38 46.19208 14.51797 1993 ft 125 kts 309°
2026-04-26 01:38 46.19760 14.50816 1816 ft 127 kts 309°
2026-04-26 01:39 46.20293 14.49818 1638 ft 122 kts 307°
2026-04-26 01:39 46.20781 14.48860 1451 ft 115 kts 306°
2026-04-26 01:39 46.21251 14.47950 1310 ft 112 kts 306°
2026-04-26 01:39 46.21703 14.47066 1213 ft 101 kts 306°
2026-04-26 01:40 46.22036 14.46413 1225 ft 63 kts 306°
2026-04-26 01:40 46.22218 14.46065 1241 ft 12 kts 321°
2026-04-26 01:40 46.22257 14.46122 1234 ft 7 kts 66°
2026-04-26 01:40 46.21737 14.46999 1213 ft 0 kts 307°
2026-04-26 01:41 46.21808 14.46865 1214 ft 36 kts 306°
2026-04-26 01:41 46.21947 14.46584 1220 ft 33 kts 306°
2026-04-26 01:41 46.22071 14.46338 1227 ft 28 kts 307°
2026-04-26 01:42 46.22178 14.46143 1234 ft 17 kts 312°
2026-04-26 01:42 46.22266 14.46148 1233 ft 14 kts 30°
2026-04-26 01:42 46.22332 14.46213 1232 ft 7 kts 30°
2026-04-26 01:42 46.22366 14.46243 1232 ft 0 kts 33°
2026-04-26 01:43 46.22369 14.46247 1232 ft 5 kts 33°
2026-04-26 01:43 46.22423 14.46304 1232 ft 14 kts 37°
2026-04-26 01:43 46.22446 14.46330 1232 ft 4 kts 37°
2026-04-26 01:44 46.22505 14.46393 1232 ft 10 kts 36°
2026-04-26 01:44 46.22553 14.46424 1232 ft 0 kts 339°
2026-04-26 01:46 46.21737 14.46999 1213 ft 0 kts 307°